Showing default

RISAT-2BR2, 46905

Orbit data source: Space-Track

RISAT-2BR2, 46905 is a payload satellite owned by ISRO (IN) in LEO that was launched on Sat, 07 Nov 2020 UTC via a PSLV-DL launch vehicle from the Sirharikota (SRI). Payload-class satellites include a variety of spacecraft equipped with specific instruments for various scientific and technological missions. These include communications satellites like Starlink; space stations such as the ISS; scientific satellites like the Hubble; Earth observation satellites from companies like Planet Labs, Umbra, and HawkEye 360; GPS; miniature CubeSats for education and research; and military/defense satellites.

Loading next visibility...
Identifier
46905, 2020-081A
Orbit
LEO
Country
Flag of ININ / IND
Related business
Manufacturer
ISRO
Mission
Operational Civil Radar Imaging
Bus & Motor
TECHSAR, Unknown motor
Mass
628 kg wet, 628 kg dry
Launch date (UTC)
2020-11-07 (5 years ago)
Launch vehicle
PSLV-DL
Launch site
Sirharikota (SRI)
Object type
Payload
Rocket body
Debris
Shape & HBR
Hex Cyl + 2 Pan + 1 Dish, Unknown HBR
Radar Cross Section
2.910 m², Large (>1 m²)

Expand to show TLE details & history
Last TLE update: 6 hours ago

TLE from 6 hours ago
0 RISAT-2BR2
1 46905U 20081A   26127.84985131  .00002141  00000-0  16861-3 0  9995
2 46905  36.8975 103.7762 0011669 198.2512 161.7811 15.01389800301409
Epoch: 2026-05-07T20:23Z
TLE epoch observation values (Epoch: 2026-05-07T20:23:47.153Z)
Latitude
-0.00002°
Longitude
-67.86038°
Altitude
569.419 km
Speed
7.574 km/s
True Right ascension
06h 55m 06s
True Declination
0° 00' 00"
Sunlit
Object was in daylight at epoch
Visualization orbit readout
Latitude
Unknown
Longitude
Unknown
Altitude
Unknown
Speed
Unknown
Apparent Right ascension
Unknown
Apparent Declination
Unknown
Sunlit
N/A
Visualization observer readout
Local Sidereal Time
10:05:15
Azimuth
Unknown
Elevation
Unknown
Doppler factor
Unknown
Orbital elements
Apogee altitude
573.632 km
Perigee altitude
557.427 km
Semi-major axis
6,943.666 km
Eccentricity
0.00117
Inclination
36.8975°
RAAN
103.7762°
Arg. of periapsis
198.2512°
True anomaly
161.82285°
Mean anomaly
161.7811°
Eccentric anomaly
161.80198°
Mean motion
3.75111 °/min
Orbital period
95.97 mins
BSTAR
0.00016861
Loading maneuver chart data...
Computing Atmospheric mass density...
Loading historical data...
Loading historical data...
Loading historical data...
Loading historical data...
Loading historical data...
Loading historical data...
Loading historical data...

Documentation

Showing up to 5 results
|